COSMOS 1275 DEB, 14739

Orbit data source: Space-Track

COSMOS 1275 DEB, 14739 is space debris in LEO originally from a launch on Thu, 04 Jun 1981 UTC launched from the Plesetsk Missile And Space Complex (PKMTR). Debris objects in space refer to the collection of defunct objects orbiting the Earth. Examples of debris include non-operational satellites, rocket bodies, and fragments generated from explosions, collisions, or faulty payload assembly.

Loading next visibility...
Identifier
14739, 1981-053JU
Orbit
LEO
Country
Flag of CISCIS
Related business
Manufacturer
Unknown
Mission
Spacecraft
Bus & Motor
Unknown
Mass
Unknown
Launch date (UTC)
1981-06-04 (45 years ago)
Launch vehicle
Unknown
Launch site
Plesetsk Missile And Space Complex (PKMTR)
Object type
Payload
Rocket body
Debris
Shape & HBR
Unknown shape, 0.1 m
Radar Cross Section
Small (<0.1 m²)

Expand to show TLE details & history
Last TLE update: 3 hours ago

TLE from 3 hours ago
0 COSMOS 1275 DEB
1 14739U 81053JU  26145.20555985  .00001568  00000-0  98182-3 0  9999
2 14739  83.0066 219.7051 0052484 267.3680  92.1483 14.03370043258736
Epoch: 2026-05-25T04:56Z
TLE epoch observation values (Epoch: 2026-05-25T04:56:00.371Z)
Latitude
-0.00006°
Longitude
-97.09314°
Altitude
886.718 km
Speed
7.408 km/s
True Right ascension
14h 38m 49s
True Declination
0° 00' 00"
Sunlit
Object was in full shadow at epoch
Visualization orbit readout
Latitude
Unknown
Longitude
Unknown
Altitude
Unknown
Speed
Unknown
Apparent Right ascension
Unknown
Apparent Declination
Unknown
Sunlit
N/A
Visualization observer readout
Local Sidereal Time
17:36:51
Azimuth
Unknown
Elevation
Unknown
Doppler factor
Unknown
Orbital elements
Apogee altitude
917.345 km
Perigee altitude
841.166 km
Semi-major axis
7,257.393 km
Eccentricity
0.00525
Inclination
83.0066°
RAAN
219.7051°
Arg. of periapsis
267.368°
True anomaly
92.74914°
Mean anomaly
92.1483°
Eccentric anomaly
92.44874°
Mean motion
3.51053 °/min
Orbital period
102.55 mins
BSTAR
0.00098182
Loading maneuver chart data...
Computing Atmospheric mass density...
Loading historical data...
Loading historical data...
Loading historical data...
Loading historical data...
Loading historical data...
Loading historical data...
Loading historical data...

Documentation

Showing up to 5 results
|